Regional Weather Roundup
Issued by NWS

Home | Current Version | Previous Version | Text Only | Print | Product List | Glossary On
Versions: 1 2 3 4 5 6 7 8 9 10 11 12 13 14 15 16 17 18 19 20 21 22 23 24 25 26 27 28 29 30 31 32 33 34 35 36 37 38 39 40 41 42 43 44 45 46 47 48 49 50
293
ASUS43 KTOP 131008
RWRKS

WEATHER ROUNDUP FOR KANSAS
NATIONAL WEATHER SERVICE GOODLAND KS
400 AM CST WED DEC 13 2017

NOTE:  "FAIR" INDICATES FEW OR NO CLOUDS BELOW 12,000 FEET WITH NO
SIGNIFICANT WEATHER AND/OR OBSTRUCTIONS TO VISIBILITY.

KSZ001>006-013>018-027>032-041>047-131100-
NORTHWEST KANSAS

CITY           SKY/WX    TMP DP  RH WIND       PRES   REMARKS
GOODLAND       CLEAR     41  13  31 NW17      29.97R
HAYS           CLEAR     42  18  37 W14       29.85F
HILL CITY      CLEAR     48  16  27 NW14G25   29.87R
RUSSELL        CLEAR     36  19  50 W8        29.83S
$$

KSZ061>065-074>080-084>089-131100-
SOUTHWEST KANSAS

CITY           SKY/WX    TMP DP  RH WIND       PRES   REMARKS
DODGE CITY     CLEAR     45  15  30 W16       29.90F
ELKHART        CLOUDY    47  18  32 W14       29.98S
GARDEN CITY    CLEAR     37  16  42 NW13      29.93F WCI  29
GREAT BEND     CLEAR     41  18  39 W12       29.85F
LIBERAL        CLOUDY    32  15  49 NW10      29.96F WCI  24
PRATT          CLEAR     42  15  33 W12       29.86F
$$

KSZ066>073-081>083-090>101-131100-
SOUTHEAST KANSAS

CITY           SKY/WX    TMP DP  RH WIND       PRES   REMARKS
CHANUTE        CLEAR     35  27  72 S15       29.86F WCI  25
COFFEYVILLE    CLEAR     35  27  72 S10       29.91F WCI  27
HUTCHINSON     CLEAR     29  21  72 W6        29.83F
MEDICINE LODGE   N/A     27  21  78 CALM      29.87F
NEWTON         CLEAR     34  24  67 SW13      29.82F WCI  25
PARSONS        CLEAR     34  28  79 S9        29.90F
WICHITA INTL   CLEAR     31  25  78 S8        29.84F
WICHITA JABRA  CLEAR     37  26  64 SW12      29.84F WCI  29
WICHITA MCCONL CLEAR     33  24  70 SW6       29.84F
WINFIELD       CLEAR     31  27  85 S7        29.88F
$$

KSZ007>012-019>026-033>040-048>060-102>105-131100-
NORTHEAST KANSAS

CITY           SKY/WX    TMP DP  RH WIND       PRES   REMARKS
CONCORDIA      CLOUDY    39  20  46 W14       29.76S WCI  31
EMPORIA        CLEAR     40  25  55 SW8       29.79F
LAWRENCE       CLEAR     36  27  69 S5        29.76F
MANHATTAN      CLEAR     40  23  50 SW12      29.76F WCI  33
MARYSVILLE     CLEAR     36  23  60 W9        29.73S
OLATHE IND     CLEAR     36  28  73 S18G28    29.77F WCI  26
OLATHE EXE     CLEAR     34  27  75 S10       29.76F WCI  26
SALINA         CLEAR     46  20  35 W8        29.79F
TOPEKA BILLARD CLEAR     38  28  67 SW9       29.74F
TOPEKA FORBES  CLEAR     38  28  67 SW17      29.74F WCI  28
$$




USA.gov is the U.S. government's official web portal to all federal, state and local government web resources and services.